Barrow, AK

6:10 AM AKDT on September 19, 2017 (GMT -0800)
Wiley Post-Will Rogers Memorial

Weather History for PABR - October, 2012

Change the Weather History Date:

Wednesday, October 24, 2012

  Actual Average Record
Temperature  
Mean Temperature 27 °F 12 °F  
Max Temperature 29 °F 17 °F 35 °F (1969)
Min Temperature 25 °F 7 °F -17 °F (1970)
Degree Days  
Heating Degree Days 38 53  
Month to date heating degree days 887 1096  
Since 1 July heating degree days 3039 3637  
Cooling Degree Days 0 0  
Month to date cooling degree days 0 0  
Year to date cooling degree days 0 0  
Moisture  
Dew Point 24 °F    
Average Humidity 0    
Maximum Humidity 0    
Minimum Humidity 0    
Precipitation  
Precipitation T in 0.01 in 0.32 in (1923)
Month to date precipitation 0.84 0.34  
Year to date precipitation 5.58 4.11  
Snow  
Snow T in 0.30 in 3.00 in (1923)
Month to date snowfall 9.0 7.1  
Since 1 July snowfall 15.0 12.6  
Since 1 September snowfall 14.8 11.5  
Snow Depth 4.00 in    
Sea Level Pressure  
Sea Level Pressure 30.66 in    
Wind  
Wind Speed 10 mph (SE)    
Max Wind Speed 21 mph    
Max Gust Speed 24 mph    
Visibility 6 miles    
Events Snow    
T = Trace of Precipitation, MM = Missing Value Source: NWS Daily Summary

Daily Weather History Graph

Daily Weather History Graph

Search for Another Location

Airport or City:

Trip Planner

Search our weather history database for the weather conditions in past years. The results will help you decide how hot, cold, wet, or windy it might be!

Date:

Astronomy

Oct. 24, 2012 Rise Set
Actual Time 10:34 AM AKDT 5:46 PM AKDT
Civil Twilight 9:20 AM AKDT 7:00 PM AKDT
Nautical Twilight 8:03 AM AKDT 8:16 PM AKDT
Astronomical Twilight 6:47 AM AKDT 9:31 PM AKDT
Moon 5:30 PM AKDT (10/24) 2:53 AM AKDT (10/24)
Length of Visible Light 9h 39m
Length of Day
7h 11m
Waxing Gibbous, 77% of the Moon is Illuminated
Oct 24
Waxing Gibbous
Oct 29
Full
Nov 6
Last Quarter
Nov 13
New
Nov 20
First Quarter

Hourly Weather History & Observations

Time (AKDT) Temp. Windchill Dew Point Humidity Pressure Visibility Wind Dir Wind Speed Gust Speed Precip Events Conditions
12:53 AM 28.0 °F 22.8 °F 23.0 °F 81% 30.73 in 7.0 mi West 4.6 mph - 0.00 in Snow Light Snow
1:53 AM 28.0 °F 20.8 °F 23.0 °F 81% 30.75 in 7.0 mi NW 6.9 mph - 0.00 in   Overcast
2:53 AM 28.0 °F 22.8 °F 24.1 °F 85% 30.75 in 8.0 mi NNW 4.6 mph - N/A   Overcast
3:53 AM 28.9 °F - 24.1 °F 82% 30.75 in 8.0 mi Calm Calm - 0.00 in Snow Light Snow
4:53 AM 28.0 °F - 24.1 °F 85% 30.76 in 8.0 mi Calm Calm - 0.00 in Snow Light Snow
5:53 AM 28.0 °F 24.2 °F 24.1 °F 85% 30.76 in 8.0 mi South 3.5 mph - 0.00 in Snow Light Snow
6:53 AM 28.0 °F - 24.1 °F 85% 30.76 in 7.0 mi Calm Calm - 0.00 in Snow Light Snow
7:53 AM 28.0 °F - 24.1 °F 85% 30.76 in 8.0 mi Calm Calm - 0.00 in   Overcast
8:53 AM 27.0 °F 20.5 °F 24.1 °F 89% 30.75 in 9.0 mi SSE 5.8 mph - N/A   Overcast
9:53 AM 27.0 °F 19.5 °F 24.1 °F 89% 30.74 in 9.0 mi SE 6.9 mph - N/A   Overcast
10:53 AM 27.0 °F 20.5 °F 24.1 °F 89% 30.74 in 9.0 mi ESE 5.8 mph - N/A   Overcast
11:53 AM 27.0 °F 18.7 °F 23.0 °F 85% 30.73 in 9.0 mi SE 8.1 mph - N/A   Overcast
12:53 PM 27.0 °F 18.7 °F 24.1 °F 89% 30.72 in 6.0 mi ESE 8.1 mph - N/A   Overcast
1:53 PM 27.0 °F 18.0 °F 25.0 °F 92% 30.71 in 4.0 mi ESE 9.2 mph - N/A   Overcast
2:07 PM 26.6 °F 16.8 °F 24.8 °F 93% 30.70 in 5.0 mi ESE 10.4 mph - N/A   Overcast
2:53 PM 27.0 °F 15.6 °F 25.0 °F 92% 30.68 in 5.0 mi SE 13.8 mph - N/A   Overcast
3:53 PM 27.0 °F 16.1 °F 25.0 °F 92% 30.66 in 6.0 mi SE 12.7 mph - N/A   Overcast
4:21 PM 26.6 °F 14.7 °F 24.8 °F 93% 30.66 in 7.0 mi SE 15.0 mph - N/A   Overcast
4:53 PM 26.1 °F 14.0 °F 24.1 °F 92% 30.64 in 8.0 mi SE 15.0 mph - N/A   Overcast
5:37 PM 26.6 °F 13.1 °F 24.8 °F 93% 30.60 in 4.0 mi SE 19.6 mph - N/A   Overcast
5:53 PM 27.0 °F 13.5 °F 25.0 °F 92% 30.60 in 4.0 mi SE 19.6 mph - N/A   Overcast
6:00 PM 26.6 °F 12.7 °F 26.6 °F 100% 30.60 in 1.8 mi SE 20.7 mph - 0.00 in Snow Light Snow
6:21 PM 26.6 °F 13.8 °F 24.8 °F 93% 30.59 in 2.0 mi SSE 17.3 mph - 0.00 in   Mostly Cloudy
6:41 PM 26.6 °F 14.3 °F 26.6 °F 100% 30.59 in 2.5 mi SSE 16.1 mph - 0.00 in Snow Light Snow
6:53 PM 27.0 °F 13.9 °F 25.0 °F 92% 30.60 in 1.5 mi SSE 18.4 mph - 0.00 in Snow Light Snow
7:53 PM 27.0 °F 14.7 °F 25.0 °F 92% 30.58 in 1.0 mi SSE 16.1 mph - 0.00 in Snow Light Snow
8:07 PM 26.6 °F 14.7 °F 24.8 °F 93% 30.58 in 5.0 mi SSE 15.0 mph - 0.00 in Snow Light Snow
8:36 PM 26.6 °F 15.2 °F 24.8 °F 93% 30.58 in 9.0 mi SSE 13.8 mph - 0.00 in   Overcast
8:53 PM 26.1 °F 13.1 °F 24.1 °F 92% 30.56 in 10.0 mi SSE 17.3 mph - 0.00 in   Overcast
9:53 PM 25.0 °F 12.6 °F 23.0 °F 92% 30.54 in 10.0 mi SSE 15.0 mph - N/A   Overcast
10:53 PM 25.0 °F 12.6 °F 21.9 °F 88% 30.51 in 10.0 mi SSE 15.0 mph - N/A   Overcast
11:53 PM 25.0 °F 12.6 °F 21.9 °F 88% 30.50 in 10.0 mi SSE 15.0 mph - N/A   Overcast